Patuxent River, MD

2:25 AM EST on December 03, 2016 (GMT -0500)
Patuxent River Naval Air Station

Weather History for KNHK - February, 2012

Change the Weather History Date:

Wednesday, February 8, 2012

  Actual Average Record
Temperature  
Mean Temperature 39 °F -  
Max Temperature 42 °F 39 °F 62 °F (2015)
Min Temperature 36 °F 23 °F 24 °F (2014)
Degree Days  
Heating Degree Days 26    
Moisture  
Dew Point 33 °F    
Average Humidity 78    
Maximum Humidity 93    
Minimum Humidity 65    
Precipitation  
Precipitation 0.05 in - - ()
Sea Level Pressure  
Sea Level Pressure 30.18 in    
Wind  
Wind Speed 7 mph (North)    
Max Wind Speed 10 mph    
Max Gust Speed -    
Visibility 8 miles    
Events Rain    
Averages and records for this station are not official NWS values.
T = Trace of Precipitation, MM = Missing Value Source: NWS Daily Summary

Daily Weather History Graph

Daily Weather History Graph

Search for Another Location

Airport or City:

Trip Planner

Search our weather history database for the weather conditions in past years. The results will help you decide how hot, cold, wet, or windy it might be!

Date:

Astronomy

Feb. 08, 2012 Rise Set
Actual Time 7:04 AM EST 5:35 PM EST
Civil Twilight 6:37 AM EST 6:03 PM EST
Nautical Twilight 6:05 AM EST 6:34 PM EST
Astronomical Twilight 5:34 AM EST 7:05 PM EST
Moon 6:50 PM EST (2/8) 7:07 AM EST (2/8)
Length of Visible Light 11h 26m
Length of Day
10h 31m
Full, 99% of the Moon is Illuminated
Feb 8
Full
Feb 14
Last Quarter
Feb 21
New
Feb 29
First Quarter
Mar 8
Full

Hourly Weather History & Observations

Time (EST) Temp. Windchill Dew Point Humidity Pressure Visibility Wind Dir Wind Speed Gust Speed Precip Events Conditions
12:52 AM 37.0 °F 31.0 °F 28.9 °F 73% 30.23 in 8.0 mi NNE 8.1 mph - N/A   Clear
1:52 AM 37.0 °F 31.6 °F 28.0 °F 70% 30.25 in 9.0 mi NNE 6.9 mph - N/A   Clear
2:52 AM 36.0 °F 30.3 °F 28.0 °F 73% 30.24 in 10.0 mi NNE 6.9 mph - N/A   Clear
3:52 AM 36.0 °F 29.6 °F 28.0 °F 73% 30.23 in 10.0 mi NNE 8.1 mph - N/A   Clear
4:52 AM 37.0 °F 31.6 °F 28.9 °F 73% 30.25 in 10.0 mi NNE 6.9 mph - N/A   Clear
5:52 AM 37.9 °F 34.4 °F 28.9 °F 70% 30.26 in 10.0 mi NE 4.6 mph - N/A   Clear
6:09 AM 39.2 °F 35.0 °F 28.4 °F 65% 30.26 in 10.0 mi NE 5.8 mph - N/A   Mostly Cloudy
6:52 AM 39.0 °F 33.4 °F 30.0 °F 70% 30.24 in 10.0 mi NE 8.1 mph - N/A   Mostly Cloudy
7:52 AM 39.0 °F 35.7 °F 30.9 °F 73% 30.25 in 9.0 mi NE 4.6 mph - N/A   Mostly Cloudy
8:52 AM 39.9 °F 34.5 °F 30.9 °F 70% 30.25 in 10.0 mi NNE 8.1 mph - N/A   Overcast
9:52 AM 41.0 °F 38.0 °F 32.0 °F 70% 30.25 in 10.0 mi NE 4.6 mph - N/A   Overcast
10:52 AM 41.0 °F 36.4 °F 32.0 °F 70% 30.24 in 10.0 mi North 6.9 mph - N/A   Overcast
11:52 AM 42.1 °F 37.7 °F 32.0 °F 67% 30.21 in 10.0 mi North 6.9 mph - N/A   Overcast
12:52 PM 42.1 °F 37.1 °F 32.0 °F 67% 30.17 in 10.0 mi North 8.1 mph - N/A   Overcast
1:35 PM 41.0 °F 34.7 °F 32.0 °F 70% 30.16 in 10.0 mi NNW 10.4 mph - 0.00 in Rain Light Rain
1:52 PM 41.0 °F 35.2 °F 33.1 °F 73% 30.16 in 6.0 mi NNW 9.2 mph - 0.00 in Rain Light Rain
2:52 PM 41.0 °F 37.1 °F 35.1 °F 79% 30.13 in 6.0 mi NNW 5.8 mph - 0.01 in   Light Drizzle
3:11 PM 41.0 °F 38.0 °F 35.6 °F 81% 30.13 in 6.0 mi NW 4.6 mph - 0.01 in Rain Light Rain
3:27 PM 41.0 °F - 35.6 °F 81% 30.13 in 6.0 mi Calm Calm - 0.01 in Rain Light Rain
3:52 PM 42.1 °F 39.2 °F 36.0 °F 79% 30.13 in 5.0 mi NNW 4.6 mph - 0.01 in Rain Light Rain
4:52 PM 41.0 °F 39.0 °F 36.0 °F 82% 30.12 in 4.0 mi NNW 3.5 mph - 0.01 in Rain Light Rain
5:52 PM 41.0 °F 36.4 °F 37.0 °F 86% 30.12 in 5.0 mi NW 6.9 mph - 0.00 in Rain Light Rain
6:01 PM 39.2 °F 33.0 °F 35.6 °F 87% 30.12 in 6.0 mi WNW 9.2 mph - 0.00 in   Overcast
6:52 PM 39.9 °F 34.5 °F 36.0 °F 86% 30.12 in 6.0 mi NW 8.1 mph - 0.00 in   Overcast
7:52 PM 39.9 °F 36.7 °F 37.0 °F 89% 30.12 in 6.0 mi NNW 4.6 mph - N/A   Overcast
8:38 PM 39.2 °F 33.6 °F 37.4 °F 93% 30.12 in 5.0 mi NW 8.1 mph - 0.00 in Rain Light Rain
8:52 PM 39.0 °F 32.8 °F 36.0 °F 89% 30.12 in 6.0 mi WNW 9.2 mph - 0.00 in Rain Light Rain
9:52 PM 39.0 °F 32.3 °F 36.0 °F 89% 30.14 in 5.0 mi NW 10.4 mph - 0.02 in Rain Light Rain
10:28 PM 37.4 °F 30.8 °F 35.6 °F 93% 30.13 in 4.0 mi WNW 9.2 mph - 0.00 in   Overcast
10:52 PM 37.9 °F 31.5 °F 35.1 °F 89% 30.14 in 5.0 mi NW 9.2 mph - 0.00 in   Overcast
11:52 PM 37.9 °F 31.5 °F 35.1 °F 89% 30.14 in 7.0 mi WNW 9.2 mph - N/A   Overcast